Weather History for KPIL - March, 2014

Change the Weather History Date:

Tuesday, March 4, 2014

  Actual Average Record
Temperature  
Mean Temperature 42 °F -  
Max Temperature 46 °F - - ()
Min Temperature 39 °F - - ()
Degree Days  
Heating Degree Days 22    
Moisture  
Dew Point 40 °F    
Average Humidity 90    
Maximum Humidity 93    
Minimum Humidity 82    
Precipitation  
Precipitation 0.03 in - - ()
Sea Level Pressure  
Sea Level Pressure 30.12 in    
Wind  
Wind Speed 16 mph (NNW)    
Max Wind Speed 24 mph    
Max Gust Speed 31 mph    
Visibility 7 miles    
Events Rain , Thunderstorm    
T = Trace of Precipitation, MM = Missing Value Source: NWS Daily Summary

Daily Weather History Graph

Daily Weather History Graph

Search for Another Location

Airport or City:

Trip Planner

Search our weather history database for the weather conditions in past years. The results will help you decide how hot, cold, wet, or windy it might be!

Date:

Astronomy

Mar. 04, 2014 Rise Set
Actual Time 6:49 AM CST 6:32 PM CST
Civil Twilight 6:26 AM CST 6:55 PM CST
Nautical Twilight 5:59 AM CST 7:22 PM CST
Astronomical Twilight 5:33 AM CST 7:49 PM CST
Moon 9:00 AM CST (3/4) 10:14 PM CST (3/4)
Length of Visible Light 12h 28m
Length of Day
11h 42m
Waxing Crescent, 15% of the Moon is Illuminated
Mar 4
Waxing Crescent
Mar 8
First Quarter
Mar 16
Full
Mar 23
Last Quarter
Mar 30
New

Hourly Weather History & Observations

Time (CST) Temp. Windchill Dew Point Humidity Pressure Visibility Wind Dir Wind Speed Gust Speed Precip Events Conditions
12:28 AM 41.0 °F 31.9 °F 37.4 °F 87% 30.19 in 8.0 mi NNW 19.6 mph - 0.00 in   Overcast
12:49 AM 41.0 °F 32.5 °F 37.4 °F 87% 30.18 in 7.0 mi NW 17.3 mph - 0.00 in Rain , Thunderstorm Light Rain
12:53 AM 41.0 °F 32.5 °F 37.9 °F 89% 30.18 in 7.0 mi NNW 17.3 mph - 0.00 in Rain , Thunderstorm Light Rain
1:04 AM 41.0 °F 32.2 °F 37.4 °F 87% 30.18 in 6.0 mi NW 18.4 mph - 0.02 in Rain Light Rain
1:11 AM 41.0 °F 32.5 °F 37.4 °F 87% 30.18 in 8.0 mi NW 17.3 mph - 0.02 in Rain , Thunderstorm Light Rain
1:26 AM 41.0 °F 33.1 °F 37.4 °F 87% 30.16 in 8.0 mi NNW 15.0 mph - 0.02 in   Overcast
1:53 AM 41.0 °F 33.1 °F 37.9 °F 89% 30.15 in 9.0 mi NNW 15.0 mph - 0.02 in Rain Light Rain
2:53 AM 41.0 °F 30.9 °F 36.0 °F 82% 30.13 in 10.0 mi NNW 24.2 mph 31.1 mph 0.00 in   Overcast
3:31 AM 39.2 °F 29.6 °F 37.4 °F 93% 30.15 in 10.0 mi NNW 19.6 mph 26.5 mph N/A   Overcast
3:50 AM 39.2 °F 29.3 °F 37.4 °F 93% 30.17 in 10.0 mi NW 20.7 mph - N/A   Overcast
3:53 AM 39.9 °F 30.8 °F 37.0 °F 89% 30.16 in 10.0 mi NW 18.4 mph - N/A   Overcast
4:02 AM 39.2 °F 30.2 °F 35.6 °F 87% 30.12 in 10.0 mi North 17.3 mph - N/A   Overcast
4:43 AM 39.2 °F 31.2 °F 35.6 °F 87% 30.14 in 9.0 mi NNW 13.8 mph - 0.00 in Rain Light Rain
4:53 AM 39.9 °F 32.5 °F 37.0 °F 89% 30.13 in 9.0 mi NNW 12.7 mph - 0.00 in Rain , Thunderstorm Light Rain
5:07 AM 39.2 °F 30.5 °F 37.4 °F 93% 30.15 in 7.0 mi NW 16.1 mph - 0.01 in Rain , Thunderstorm Light Rain
5:17 AM 39.2 °F 29.8 °F 37.4 °F 93% 30.14 in 8.0 mi NW 18.4 mph - 0.01 in Rain , Thunderstorm Light Thunderstorms and Rain
5:45 AM 39.2 °F 30.5 °F 37.4 °F 93% 30.14 in 6.0 mi NNW 16.1 mph - 0.01 in Rain Light Rain
5:53 AM 39.9 °F 31.1 °F 37.0 °F 89% 30.14 in 6.0 mi NNW 17.3 mph - 0.01 in   Overcast
6:53 AM 42.1 °F 35.7 °F 39.0 °F 89% 30.15 in 9.0 mi North 11.5 mph - N/A   Overcast
7:53 AM 42.1 °F 34.9 °F 39.0 °F 89% 30.16 in 6.0 mi NW 13.8 mph - N/A   Overcast
8:32 AM 42.8 °F 35.4 °F 39.2 °F 87% 30.16 in 6.0 mi NW 15.0 mph - N/A   Overcast
8:45 AM 42.8 °F 35.4 °F 39.2 °F 87% 30.16 in 6.0 mi NW 15.0 mph - N/A   Overcast
8:53 AM 42.1 °F 33.3 °F 39.0 °F 89% 30.16 in 6.0 mi NW 19.6 mph - N/A   Overcast
9:53 AM 41.0 °F 32.5 °F 37.9 °F 89% 30.18 in 7.0 mi NNW 17.3 mph 21.9 mph N/A   Overcast
10:53 AM 41.0 °F 33.5 °F 39.0 °F 93% 30.19 in 3.0 mi NNW 13.8 mph 19.6 mph 0.00 in Rain Light Rain
11:53 AM 42.1 °F 34.2 °F 39.9 °F 92% 30.17 in 4.0 mi NNW 16.1 mph - 0.00 in Rain Light Rain
12:53 PM 43.0 °F 36.4 °F 41.0 °F 93% 30.15 in 4.0 mi NNW 12.7 mph - 0.00 in   Overcast
1:53 PM 44.1 °F 38.6 °F 42.1 °F 93% 30.11 in 4.0 mi NNW 10.4 mph - N/A   Overcast
2:53 PM 45.0 °F 39.7 °F 43.0 °F 93% 30.08 in 5.0 mi North 10.4 mph - N/A   Overcast
3:53 PM 45.0 °F 38.9 °F 43.0 °F 93% 30.07 in 6.0 mi NNW 12.7 mph - N/A   Overcast
4:53 PM 45.0 °F 39.7 °F 43.0 °F 93% 30.06 in 3.0 mi North 10.4 mph - N/A   Overcast
5:53 PM 45.0 °F 39.3 °F 43.0 °F 93% 30.05 in 4.0 mi NNW 11.5 mph - N/A   Overcast
6:53 PM 46.0 °F 41.4 °F 44.1 °F 93% 30.05 in 8.0 mi North 9.2 mph - N/A   Overcast
7:23 PM 46.4 °F 42.9 °F 44.6 °F 93% 30.04 in 9.0 mi NNW 6.9 mph - N/A   Overcast
7:53 PM 46.9 °F - 44.1 °F 90% 30.05 in 9.0 mi NNW 9.2 mph - N/A   Overcast
8:13 PM 46.4 °F 41.5 °F 44.6 °F 93% 30.05 in 9.0 mi NNW 10.4 mph - N/A   Overcast
8:53 PM 46.9 °F - 44.1 °F 90% 30.05 in 8.0 mi NNW 10.4 mph - N/A   Overcast
9:53 PM 46.9 °F - 44.1 °F 90% 30.05 in 8.0 mi NNW 9.2 mph - N/A   Overcast
10:53 PM 46.9 °F - 45.0 °F 93% 30.05 in 8.0 mi NW 9.2 mph - N/A   Overcast
11:53 PM 46.9 °F - 45.0 °F 93% 30.02 in 7.0 mi NW 8.1 mph - N/A   Overcast